User: anonymous   Login
Location: Caltech
(34.1382°N, 118.1253°W)
Time: 11:16:01
(UTC-07:00)
Language:

PAYLOAD A - Orbit

View from above orbital plane
View from above orbital plane
View from above satellite
View from above satellite

Ground track
Ground track

The orbit data is extracted from the following two-line orbital elements,

1 27840U 03031A   15114.20749113  .00000156  00000-0  61790-4 0  9996
2 27840 098.2110 134.9777 0097615 326.0836 109.6558 14.38797837620434
Epoch (UTC): 24 April 2015 04:58:47
Eccentricity: 0.0097615
inclination: 98.2110°
perigee height: 693 km
apogee height: 832 km
right ascension of ascending node: 134.9777°
argument of perigee: 326.0836°
revolutions per day: 14.38797837
mean anomaly at epoch: 109.6558°
orbit number at epoch: 62043

The dashed part of the orbit path shows where the satellite is in the earth's shadow,  

DLR